EX-ALTA-2

Last updated on Sat Oct 28 2023 00:02:07 GMT+0000 (Coordinated Universal Time)

1 56313U 98067VE 23300.59547300 .05471661 12175-4 12485-2 0 9991 2 56313 51.6099 8.8670 0007777 343.5856 16.4912 16.29176133 29217

Satellite not in orbit

EX-ALTA-2